Fresno, CA

11:42 PM PDT on October 21, 2019 (GMT -0700)
Fresno Yosemite International

Weather History for KFAT - August, 2019

Change the Weather History Date:

Saturday, August 17, 2019

  Actual Average Record
Temperature  
Mean Temperature 86 °F 82 °F  
Max Temperature 101 °F 97 °F 111 °F (1892)
Min Temperature 71 °F 66 °F 53 °F (1968)
Degree Days  
Heating Degree Days 0    
Month to date heating degree days 0  
Since 1 June heating degree days 0  
Since 1 July heating degree days 0  
Cooling Degree Days 21    
Month to date cooling degree days 343  
Year to date cooling degree days 1662  
Since 1 June cooling degree days 1425  
Growing Degree Days 36 (Base 50)    
Moisture  
Dew Point 53 °F    
Average Humidity 36    
Maximum Humidity 53    
Minimum Humidity 19    
Precipitation  
Precipitation 0.00 in 0.00 in 0.02 in (1985)
Month to date precipitation 0.00 0.00  
Year to date precipitation 9.52 7.85  
Snow  
Snow 0.00 in - - ()
Month to date snowfall 0.0  
Since 1 June snowfall 0.0  
Since 1 July snowfall 0.0  
Snow Depth 0.00 in    
Sea Level Pressure  
Sea Level Pressure 29.74 in    
Wind  
Wind Speed 8 mph (SSE)    
Max Wind Speed 18 mph    
Max Gust Speed 21 mph    
Visibility 10 miles    
Events      
T = Trace of Precipitation, MM = Missing Value Source: NWS Daily Summary

Daily Weather History Graph

Daily Weather History Graph

Search for Another Location

Airport or City:

Astronomy

Aug. 17, 2019 Rise Set
Actual Time 6:17 AM PDT 7:47 PM PDT
Civil Twilight 5:50 AM PDT 8:15 PM PDT
Nautical Twilight 5:17 AM PDT 8:47 PM PDT
Astronomical Twilight 4:42 AM PDT 9:22 PM PDT
Moon 9:20 PM PDT (8/17) 8:09 AM PDT (8/17)
Length of Visible Light 14h 24m
Length of Day
13h 30m
Waning Gibbous, 95% of the Moon is Illuminated
Aug 17
Waning Gibbous
Aug 23
Last Quarter
Aug 30
New
Sep 5
First Quarter
Sep 13
Full

Hourly Weather History & Observations

Time (PDT) Temp. Heat Index Dew Point Humidity Pressure Visibility Wind Dir Wind Speed Gust Speed Precip Events Conditions
12:53 AM 79.0 °F - 53.1 °F 40% 29.74 in 10.0 mi NNW 5.8 mph - N/A   Scattered Clouds
1:53 AM 79.0 °F - 54.0 °F 42% 29.73 in 10.0 mi Calm Calm - N/A   Scattered Clouds
2:53 AM 77.0 °F - 55.0 °F 47% 29.73 in 10.0 mi North 4.6 mph - N/A   Scattered Clouds
3:53 AM 75.9 °F - 55.0 °F 48% 29.73 in 10.0 mi Calm Calm - N/A   Scattered Clouds
4:53 AM 73.9 °F - 55.0 °F 52% 29.73 in 10.0 mi SE 4.6 mph - N/A   Scattered Clouds
5:53 AM 72.0 °F - 52.0 °F 49% 29.75 in 10.0 mi ESE 6.9 mph - N/A   Partly Cloudy
6:53 AM 72.0 °F - 52.0 °F 49% 29.76 in 10.0 mi ESE 5.8 mph - N/A   Clear
7:53 AM 73.9 °F - 48.9 °F 41% 29.77 in 10.0 mi ESE 9.2 mph - N/A   Clear
8:53 AM 80.1 °F - 51.1 °F 36% 29.77 in 10.0 mi ESE 8.1 mph - N/A   Clear
9:53 AM 84.0 °F - 52.0 °F 33% 29.78 in 10.0 mi SSE 12.7 mph - N/A   Clear
10:53 AM 86.0 °F 84.7 °F 55.9 °F 36% 29.78 in 10.0 mi SE 9.2 mph - N/A   Clear
11:53 AM 88.0 °F 86.5 °F 55.9 °F 34% 29.78 in 10.0 mi SSE 8.1 mph - N/A   Clear
12:53 PM 91.0 °F 89.7 °F 57.0 °F 32% 29.76 in 10.0 mi SSE 8.1 mph - N/A   Clear
1:53 PM 96.1 °F 93.8 °F 54.0 °F 24% 29.75 in 10.0 mi SSE 8.1 mph - N/A   Clear
2:53 PM 98.1 °F 96.1 °F 54.0 °F 23% 29.73 in 10.0 mi SSE 9.2 mph - N/A   Clear
3:53 PM 100.0 °F 97.9 °F 53.1 °F 21% 29.70 in 10.0 mi Calm Calm - N/A   Clear
4:53 PM 100.9 °F - 50.0 °F 18% 29.69 in 10.0 mi WNW 5.8 mph - N/A   Clear
5:53 PM 100.0 °F 97.9 °F 54.0 °F 21% 29.67 in 10.0 mi NW 9.2 mph - N/A   Clear
6:53 PM 96.1 °F 93.8 °F 54.0 °F 24% 29.67 in 10.0 mi WNW 15.0 mph - N/A   Clear
7:53 PM 90.0 °F 87.7 °F 54.0 °F 29% 29.69 in 10.0 mi WNW 13.8 mph - N/A   Clear
8:53 PM 86.0 °F - 51.1 °F 30% 29.71 in 10.0 mi NW 12.7 mph - N/A   Clear
9:53 PM 80.1 °F - 51.1 °F 36% 29.73 in 10.0 mi NW 15.0 mph - N/A   Clear
10:53 PM 77.0 °F - 52.0 °F 42% 29.75 in 10.0 mi NW 13.8 mph - N/A   Clear
11:53 PM 73.9 °F - 52.0 °F 46% 29.75 in 10.0 mi NW 10.4 mph - N/A   Clear